Location: Newark
(36.7344°N, 137.0547°E)
Time: 08:14:18
(UTC+00:00)

Envisat - Pass Details

Date: 21 October 2019
Orbit: 764 x 766 km, 98.1° (Epoch: 18 November)

Event Time Altitude Azimuth Distance (km) Brightness Sun altitude
Rises 10:08:53 0° 206° (SSW) 3,218 6.5 -24.8°
Reaches altitude 10° 10:11:54 10° 225° (SW) 2,297 5.9 -25.4°
Maximum altitude 10:15:17 18° 267° (W) 1,816 5.8 -26.1°
Drops below altitude 10° 10:18:41 10° 309° (NW) 2,307 6.2 -26.8°
Sets 10:21:45 0° 329° (NNW) 3,238 6.8 -27.4°
